{"data":{"norad_id":68812,"epoch":"2026-05-25T02:44:11.288256Z","epoch_age_seconds":75859,"freshness":"FRESH","line1":"1 68812U 26089L   26145.11401954  .00218424  00000+0  14284-2 0  9994","line2":"2 68812  97.2844 351.7603 0001474 142.0991 218.0378 15.75186261  5060","mean_motion":15.75186261,"eccentricity":0.0001474,"inclination_deg":97.2844,"raan_deg":351.7603,"arg_perigee_deg":142.0991,"mean_anomaly_deg":218.0378,"bstar":0.0014284,"rev_number":506,"period_min":91.417760277177,"perigee_km":343.11034841507,"apogee_km":345.0920642383,"semimajor_km":6722.2382063267,"source":"CELESTRAK","updated_at":"2026-05-25T13:38:22.042056Z"}}